Regional Weather Roundup
Issued by NWS State College, PA

Home | Current Version | Previous Version | Graphics & Text | Print | Product List | Glossary Off
Versions: 1 2 3 4 5 6 7 8 9 10 11 12 13 14 15 16 17 18 19 20 21 22 23 24 25 26 27 28 29 30 31 32 33 34 35 36 37 38 39 40 41 42 43 44 45 46 47 48 49 50

000
ASUS41 KCTP 232210
RWRCTP

REGIONAL WEATHER ROUNDUP
NATIONAL WEATHER SERVICE STATE COLLEGE PA
600 PM EDT WED APR 23 2014

Note: "fair" indicates few or no clouds below 12,000 feet with no
significant weather and/or obstructions to visibility.

* = STATION THAT DOES NOT REPORT PRECIPITATION /E.G. RAIN...SNOW...ETC/
    THUNDER OR FOG.

PAZ002>004-007>009-013>016-020>023-029>032-232300-
WESTERN PENNSYLVANIA

CITY           SKY/WX    TMP DP  RH WIND       PRES   REMARKS
ERIE           SUNNY     44  27  51 W13G21    30.03S
MEADVILLE      SUNNY     44  21  40 NW14G22   30.02R
FRANKLIN*      SUNNY     45  25  45 NW10G18   30.02R
NEW CASTLE     FAIR      48  26  42 N15       30.04R
BEAVER COUNTY  MOSUNNY   48  28  46 NW13G20   30.02S
BUTLER*        PTSUNNY   46  27  46 W13G21    30.03R
PITTSBURGH INT PTSUNNY   47  30  51 W17G24    30.02S
PITTSBURGH     PTSUNNY   48  30  49 VRB6G17   30.01R
INDIANA*       CLOUDY    45  32  61 NW9G20    29.98S
LATROBE        PTSUNNY   46  34  61 NW10      30.01R
WASHINGTON CO* PTSUNNY   48  30  49 NW14      30.04F
$$

PAZ004>006-010>012-017>019-024>028-033>037-041-042-045-046-049>053-232300-
CENTRAL PENNSYLVANIA

CITY           SKY/WX    TMP DP  RH WIND       PRES   REMARKS
BRADFORD       PTSUNNY   43  27  53 NW14G28   29.92R
DUBOIS         MOSUNNY   45  28  51 NW17G26   29.94S
CLEARFIELD     PTSUNNY   44  29  55 W16G23    29.94S
JOHNSTOWN      CLOUDY    39  30  70 NW16      29.93R
ALTOONA        CLOUDY    45  34  65 NW14G25   29.94R
STATE COLLEGE  PTSUNNY   43  27  52 NW14      29.94R
WILLIAMSPORT   CLOUDY    47  29  49 NW18G29   29.87R
SELINSGROVE    PTSUNNY   50  31  48 NW18G38   29.86R
FT INDIANTOWN  CLOUDY    52  34  50 W16G24    29.83R
CAPITAL CITY   PTSUNNY   51  33  50 W23G33    29.86R
HARRISBURG     PTSUNNY   51  34  52 NW24G33   29.85R
YORK           PTSUNNY   52  34  50 NW21G31   29.86R
$$

PAZ038>040-043-044-047-048-054-055-060>062-067>071-232300-
EASTERN PENNSYLVANIA

CITY           SKY/WX    TMP DP  RH WIND       PRES   REMARKS
SCRANTON       CLOUDY    45  33  63 NW18G31   29.81R
MOUNT POCONO   CLOUDY    41  32  70 NW17G35   29.74R
ALLENTOWN      PTSUNNY   52  33  48 NW21G26   29.76R
QUAKERTOWN*    CLOUDY    54  34  47 W13G20    29.76R
READING        PTSUNNY   54  34  46 NW23      29.78R
LANCASTER      PTSUNNY   51  34  52 W18G28    29.81R
COATESVILLE    MOCLDY    52  34  50 NW20G31   29.78R
POTTSTOWN      CLOUDY    55  35  47 W20G28    29.77R
BLUE BELL      CLOUDY    55  34  44 NW10G18   29.74R
DOYLESTOWN     PTSUNNY   54  34  46 NW15G25   29.73R
WILLOW GROVE   NOT AVBL
NORTH PHILA    MOSUNNY   57  32  38 NW17G30   29.74R
PHILADELPHIA   PTSUNNY   59  32  36 NW23      29.75R
$$



USA.gov is the U.S. government's official web portal to all federal, state and local government web resources and services.